TIME,DELAY(SENSOR),PRES,OXYGEN,RAWTEMP,T(OPTODE),TCPHASE,FLUOR,BETA(BETA700),BETA(BETA412),BETA(BETA440),CDOM,C(CSC),ED(ED411.90),ED(ED443.80),ED(ED489.40),ED(ED554.70),LU(LU412.20),LU(LU443.80),LU(LU489.40),LU(LU555.00),COMP,TILTX,TILTY,CHECK
1367880179,5802,892.6400146484375000,157.8587951660156200,478.9007873535156000,8.1826305389404300,40.4433288574218750,54,133,103,86,80,10871,2146960530,2147520475,2147292626,2147507428,2147085147,2146927168,2147711780,2147118537,1497,-1,9,29730
1367883775,5804,1001.5700073242188000,217.5912017822265600,532.3201904296875000,6.5231699943542480,37.4303398132324200,52,106,99,81,80,10902,2146963382,2147515044,2147299894,2147519542,2147084973,2146916214,2147729453,2147121691,2771,-1,9,4956
1367887375,5808,1015.3699951171875000,228.1914978027343800,542.9666748046875000,6.1900100708007810,37.0346488952636700,52,107,97,80,81,10896,2146966299,2147519012,2147297088,2147517275,2147086491,2146920621,2147729243,2147121645,225,0,9,60749
1367890975,5805,1021.1699829101562000,233.0019989013672000,543.8056030273438000,6.1637248992919920,36.7932510375976560,52,105,100,79,80,10896,2146963611,2147519817,2147299721,2147517504,2147087478,2146920502,2147730651,2147120100,3060,-1,9,49425
1367894575,5805,1021.8300170898438000,231.4320983886718800,545.0261840820312000,6.1254630088806150,36.8984489440918000,52,104,96,81,80,10865,2146964196,2147511908,2147297883,2147517412,2147088530,2146917979,2147729005,2147121380,3058,-1,9,6373
1367898175,5805,1022.8499755859375000,232.4776000976562500,547.2313232421875000,6.0563178062438965,36.8828315734863300,52,106,97,79,80,10883,2146964562,2147517001,2147299648,2147516187,2147083053,2146918875,2147729883,2147120283,3453,0,9,55283
1367901775,5804,1025.1500244140625000,230.2931976318359400,549.1489257812500000,5.9961547851562500,37.0342292785644500,52,105,97,79,81,10875,2146967424,2147520749,2147298276,2147519168,2147088786,2146920649,2147732781,2147122002,3175,-1,8,44931
1367905375,5808,1028.8299560546875000,232.2454986572265600,548.7332153320312000,6.0092010498046875,36.9227409362793000,53,103,96,79,80,10880,2146965641,2147520722,2147297645,2147515922,2147086217,2146917403,2147729371,2147120155,450,-1,8,8674
1367908975,5802,1027.8399658203125000,234.4002990722656200,549.9401245117188000,5.9713230133056640,36.8305702209472660,51,105,99,79,81,10881,2146962907,2147520219,2147298980,2147517577,2147086893,2146918070,2147727771,2147123675,3423,-1,9,45712
1367912575,5805,1030.8199462890625000,241.2595977783203000,548.8994140625000000,6.0039839744567870,36.4567909240722660,53,103,96,80,80,10878,2146963108,2147517211,2147298806,2147518253,2147085796,2146925430,2147727826,2147119780,3037,-1,9,43722
1367916175,5808,1028.3100585937500000,243.6401977539062500,550.7443237304688000,5.9460768699646000,36.3695411682128900,52,106,98,80,80,10849,2146965549,2147519113,2147302409,2147518637,2147086189,2146919451,2147728640,2147119771,3126,-1,8,22610
1367919775,5806,1035.4599609375000000,241.4246063232422000,548.5291748046875000,6.0156002044677730,36.4419403076171900,52,110,99,79,80,10875,2146963437,2147523401,2147299291,2147516224,2147087195,2146919451,2147728310,2147122989,3116,-1,9,40534
1367923375,5807,1028.2500000000000000,244.1609954833984400,551.0167846679688000,5.9375209808349610,36.3485298156738300,52,109,97,79,81,10863,2146963931,2147517449,2147300681,2147519515,2147086619,2146917028,2147728621,2147117522,516,-1,8,52083
1367926975,5805,1029.0899658203125000,243.7998046875000000,551.4943237304688000,5.9225311279296875,36.3756484985351560,52,109,97,81,81,10862,2146966436,2147520585,2147297856,2147519433,2147086272,2146919158,2147730934,2147120987,700,-1,8,46937
1367930575,5805,1033.1999511718750000,243.7848968505859400,550.7935791015625000,5.9445290565490720,36.3636398315429700,52,104,98,80,80,10859,2146966628,2147519350,2147300992,2147520859,2147084690,2146919552,2147729353,2147118893,207,0,8,60395
1367934175,5806,1032.3699951171875000,244.2778015136718800,550.9190063476562000,5.9405941963195800,36.3410415649414060,52,107,98,81,80,10841,2146963648,2147521115,2147298660,2147517046,2147081691,2146918948,2147727561,2147120420,3341,-1,8,30760
1367937775,5807,1031.3299560546875000,239.2220001220703000,550.7999877929688000,5.9443302154541020,36.5959587097168000,52,109,99,81,80,10829,2146967323,2147520329,2147299081,2147517513,2147086994,2146919094,2147728210,2147119542,147,-1,8,57419
1367941375,5808,1027.1999511718750000,241.8495025634765600,547.8471069335938000,6.0370011329650880,36.4078102111816400,52,106,130,80,80,10830,2146962898,2147518208,2147297280,2147518875,2147089481,2146914322,2147732077,2147119222,72,0,8,24777
1367944975,5808,1027.9100341796875000,240.7364959716797000,546.6245727539062000,6.0753440856933590,36.4427185058593750,52,104,96,80,80,10774,2146963291,2147517833,2147295844,2147516461,2147088685,2146921142,2147724617,2147124653,92,0,8,2309
1367948575,5806,1029.9899902343750000,240.2306976318359400,546.1588745117188000,6.0899510383605960,36.4596481323242200,51,104,97,79,81,10827,2146964425,2147514916,2147298806,2147517348,2147086006,2146915584,2147727753,2147124132,3400,-1,8,7775
1367952175,5806,1027.5100097656250000,239.6425933837890600,546.5692749023438000,6.0770821571350100,36.4976882934570300,52,111,96,78,80,10827,2146968438,2147521526,2147299629,2147521408,2147087442,2146919579,2147728969,2147121069,497,-1,8,57791
1367955775,5809,1024.0200195312500000,239.7124023437500000,548.0693969726562000,6.0300269126892090,36.5211486816406250,52,105,97,79,80,10828,2146964809,2147518107,2147299629,2147518665,2147085750,2146916032,2147729344,2147119634,414,-1,8,37202
1367959375,5807,1021.5599975585938000,241.2561035156250000,549.9110717773438000,5.9722328186035160,36.4750900268554700,52,110,96,79,81,10823,2146966025,2147523858,2147299885,2147521188,2147086756,2146919698,2147724982,2147121261,624,-1,8,5269
1367962975,5805,1023.2800292968750000,233.1298065185547000,550.2905883789062000,5.9603199958801270,36.9035606384277340,51,109,98,81,79,10823,2146965184,2147519579,2147299053,2147520996,2147086637,2146922678,2147725778,2147119972,3400,-1,8,54878
1367966575,5808,1023.8400268554688000,233.1163024902343800,550.3571777343750000,5.9582290649414060,36.9055404663085940,52,117,99,80,80,10823,2146964836,2147521206,2147301961,2147523529,2147086299,2146917878,2147730212,2147120795,3539,-1,9,33797
1367970175,5804,1020.9299926757812000,235.6174011230468800,550.2570190429688000,5.9613738059997560,36.7724685668945300,51,103,98,82,81,10824,2146964233,2147517988,2147298294,2147524425,2147085860,2146922240,2147730313,2147123446,3578,-1,8,25845
1367973775,5807,1018.9400024414062000,237.5650939941406200,550.7999877929688000,5.9443302154541020,36.6810607910156250,52,104,97,79,80,10817,2146965650,2147522212,2147298102,2147518692,2147085577,2146921325,2147730550,2147122093,3282,-1,9,30448
1367977375,5805,1026.8199462890625000,241.3296966552734400,550.2813110351562000,5.9606127738952640,36.4785118103027340,52,106,99,81,81,10720,2146964653,2147520740,2147299885,2147521718,2147084333,2146917065,2147731785,2147121197,177,-1,8,37502
1367980975,5805,1030.8000488281250000,243.5099029541015600,548.7359008789062000,6.0091128349304200,36.3402099609375000,52,106,98,79,81,10724,2146963026,2147523172,2147298166,2147520996,2147088320,2146921481,2147726628,2147122450,1220,-1,9,49456
1367984575,5803,1021.7399902343750000,237.4911956787109400,549.6235961914062000,5.9812560081481930,36.6641197204589840,53,995,98,80,80,10711,2146965193,2147522011,2147298422,2147519707,2147088804,2146925476,2147729490,2147119899,206,-1,8,30349
1367988175,5806,1028.2199707031250000,244.4909973144531200,550.2316284179688000,5.9621729850769040,36.3174095153808600,53,107,97,80,81,10717,2146966729,2147519323,2147299273,2147522934,2147083840,2146920905,2147729088,2147119972,3113,-1,9,46309
1367991775,5806,1019.4799804687500000,242.8484039306640600,550.8494262695312000,5.9427800178527830,36.4115791320800800,52,106,98,78,80,10712,2146964416,2147520329,2147297645,2147522240,2147088676,2146921060,2147730614,2147117504,2494,-1,9,55798
1367995375,5805,1022.1599731445312000,243.9790039062500000,550.7982788085938000,5.9443821907043460,36.3537406921386700,52,107,97,79,80,10714,2146966866,2147520630,2147300918,2147522322,2147086509,2146918875,2147729526,2147120356,2984,-1,9,59225
1367998975,5805,1026.0100097656250000,244.2187957763672000,550.5270996093750000,5.9528961181640625,36.3370018005371100,52,105,100,80,79,10715,2146961097,2147520100,2147300032,2147520594,2147085979,2146920804,2147725074,2147117997,3290,-1,9,60721
1368002575,5809,1026.4899902343750000,244.2355041503906200,550.1901855468750000,5.9634737968444820,36.3297691345214840,53,121,98,78,80,10711,2146961746,2147519771,2147299675,2147520402,2147087972,2146919542,2147726802,2147119716,3584,-1,9,61779
1368006175,5805,1028.3399658203125000,243.1986999511718800,550.5501098632812000,5.9521732330322270,36.3888206481933600,52,106,96,81,79,10709,2146963044,2147519542,2147300041,2147519478,2147086656,2146919424,2147724397,2147121252,3423,-1,9,40470
1368009775,5809,1028.7800292968750000,243.1981964111328000,549.6712036132812000,5.9797630310058590,36.3723793029785160,52,108,98,80,80,10705,2146962971,2147517760,2147299392,2147519003,2147086957,2146925120,2147725814,2147119689,69,-1,8,22206
1368013375,5807,1030.5300292968750000,241.7490997314453000,549.4067993164062000,5.9880599975585940,36.4413909912109400,52,107,101,80,80,10705,2146964105,2147520329,2147302665,2147519506,2147087652,2146918537,2147727030,2147121481,177,-1,9,57477
1368016975,5806,1025.7099609375000000,246.1829071044922000,551.5863037109375000,5.9196410179138180,36.2575798034668000,52,106,98,80,81,10691,2146962834,2147520164,2147300041,2147517732,2147087040,2146922934,2147728054,2147122578,833,-1,8,3847
1368020575,5806,1026.2900390625000000,246.8300018310547000,551.0803222656250000,5.9355278015136720,36.2162284851074200,52,107,98,81,81,10696,2146962029,2147517696,2147300964,2147520822,2147087643,2146922642,2147727844,2147117732,1024,-1,9,38538
1368023755,5807,1026.9899902343750000,243.6300048828125000,550.8461303710938000,5.9428830146789550,36.3722381591796900,52,109,98,83,80,10843,2146960896,2147520603,2147300306,2147517686,2147087661,2146921362,2147727670,2147123657,217,-1,8,65435
